Regional Weather Roundup
Issued by NWS

Home | Current Version | Previous Version | Text Only | Print | Product List | Glossary Off
Versions: 1 2 3 4 5 6 7 8 9 10 11 12 13 14 15 16 17 18 19 20 21 22 23 24 25 26 27 28 29 30 31 32 33 34 35 36 37 38 39 40 41 42 43 44 45 46 47 48 49 50

000
ASUS43 KFSD 072002
RWRSD

WEATHER ROUNDUP FOR SOUTH DAKOTA
NATIONAL WEATHER SERVICE SIOUX FALLS SD
300 PM CDT TUE JUL 07 2015

NOTE: "FAIR" INDICATES FEW OR NO CLOUDS BELOW 12,000 FEET WITH NO
SIGNIFICANT WEATHER AND/OR OBSTRUCTIONS TO VISIBILITY.


SDZ001>005-009-010-012>017-072100-
NORTHWEST AND NORTH CENTRAL SOUTH DAKOTA

CITY           SKY/WX    TMP DP  RH WIND       PRES   REMARKS
BUFFALO          N/A     81  51  35 SE13G21   29.96F
FAITH            N/A     75  57  53 S21G29    30.05F
MOBRIDGE       SUNNY     76  55  48 S14       30.08F
$$

SDZ012>016-024>037-041>051-057-063-072>074-072100-
SOUTHWEST AND SOUTH CENTRAL SOUTH DAKOTA

CITY           SKY/WX    TMP DP  RH WIND       PRES   REMARKS
RAPID CTY ARPT MOSUNNY   73  59  61 S21G26    30.07F
PIERRE         SUNNY     74  58  57 SE17      30.08F
CUSTER         PTSUNNY   63  53  70 S8        30.17F HAZE
ELLSWORTH AFB  MOSUNNY   74  59  59 S25       30.04F
PHILIP         PTSUNNY   78  57  48 SE15G24   30.06F
PINE RIDGE     CLOUDY    70  55  59 S14       30.11F
WINNER         FAIR      75  55  49 SE13G21   30.13F
$$

SDZ004>011-016>023-039-040-072100-
NORTHEAST SOUTH DAKOTA

CITY           SKY/WX    TMP DP  RH WIND       PRES   REMARKS
ABERDEEN       SUNNY     72  42  34 S8        30.14F
WATERTOWN      SUNNY     68  47  46 S7        30.16F
BROOKINGS      SUNNY     64  46  52 S12       30.19S
SISSETON         N/A     69  44  40 VRB6      30.14F
$$

SDZ017-020-022-023-036>040-048>070-072100-
SOUTHEAST SOUTH DAKOTA

CITY           SKY/WX    TMP DP  RH WIND       PRES   REMARKS
SIOUX FALLS    MOSUNNY   68  49  50 E6        30.16F
HURON          SUNNY     70  45  40 S8        30.15F
MITCHELL       MOSUNNY   70  46  42 VRB5      30.17F
YANKTON        SUNNY     68  46  45 NE8       30.15F
$$

ABBREVIATIONS USED IN REMARKS
   TC - TEMPERATURE IN CELSIUS
  WCI - WIND CHILL INDEX
   HX - HEAT INDEX
  VSB - VISIBILITY



USA.gov is the U.S. government's official web portal to all federal, state and local government web resources and services.